Вернуться в каталог

PEGASUS R/B

АктивенVLEO
NORAD 41892·ROCKET BODY·🇺🇸 United States

Запущен Dec 15, 2016 с Cape Canaveral Space Force Station

Loading…

Ближайшие Пролёты (ближайшие 24 часа)

TLE

СвежийSource: Space-Track

Эпоха: Sep 14, 2026, 11:21 UTC

1 41892U 16078J   26257.47341048  .00243085  24383-4  48346-3 0  9993
2 41892  34.9219 277.4924 0004271 150.6785 209.4192 15.98796874543895

Отслеживайте PEGASUS R/B в реальном времени с AllMySat

Download on the App Store